Precipitable_Water
0.25 0.16 0.13 0.12 0.12 0.13 0.15 0.16 0.17 0.18 0.18 0.17 0.16 0.15 0.13 0.13 0.14 0.18 0.20 0.23 0.25 0.19 0.16 0.16 0.16 0.15 0.14 0.15 0.15 0.16 0.16 0.15 0.15 0.15 0.15 0.15 0.15 0.16 0.16 0.17 0.17 0.18 0.18 0.20 0.24 0.25 0.26 0.27 0.31 0.35 0.38 0.40 0.44 0.48 0.52 0.54 0.57 0.60 0.61 0.64 0.64 0.71 0.77 0.76 0.75 0.76 0.75 0.72 0.75 0.80 0.79 0.75 0.82 0.86 0.91 0.93 0.97 1.00 1.01 1.04 1.06 1.08 1.10 1.08 1.11 1.14
0.23 0.15 0.13 0.14 0.14 0.14 0.16 0.18 0.19 0.19 0.19 0.17 0.16 0.15 0.14 0.15 0.13 0.18 0.19 0.22 0.24 0.17 0.15 0.17 0.15 0.14 0.14 0.14 0.14 0.15 0.14 0.12 0.13 0.13 0.13 0.14 0.15 0.15 0.16 0.16 0.16 0.17 0.19 0.21 0.21 0.23 0.25 0.26 0.27 0.32 0.36 0.39 0.39 0.43 0.48 0.49 0.52 0.56 0.63 0.63 0.64 0.71 0.74 0.74 0.73 0.72 0.72 0.73 0.70 0.68 0.68 0.73 0.78 0.81 0.83 0.83 0.89 0.92 0.97 1.00 1.04 1.06 1.09 1.13 1.13 1.12
0.17 0.13 0.14 0.16 0.20 0.20 0.19 0.20 0.20 0.18 0.17 0.18 0.16 0.16 0.14 0.15 0.17 0.21 0.21 0.23 0.23 0.19 0.15 0.17 0.14 0.12 0.13 0.13 0.13 0.13 0.12 0.12 0.13 0.14 0.14 0.14 0.14 0.14 0.15 0.15 0.15 0.17 0.17 0.18 0.19 0.21 0.22 0.24 0.25 0.28 0.32 0.36 0.38 0.39 0.43 0.46 0.51 0.56 0.59 0.62 0.65 0.68 0.70 0.72 0.74 0.75 0.71 0.74 0.78 0.79 0.77 0.79 0.78 0.87 0.89 0.89 0.90 0.93 0.93 0.95 0.99 1.02 1.05 1.08 1.13 1.16
0.13 0.14 0.18 0.22 0.23 0.20 0.18 0.19 0.20 0.19 0.19 0.17 0.16 0.14 0.13 0.17 0.16 0.13 0.19 0.22 0.22 0.20 0.16 0.16 0.13 0.11 0.12 0.13 0.12 0.12 0.13 0.13 0.15 0.16 0.16 0.16 0.15 0.15 0.14 0.15 0.15 0.15 0.16 0.16 0.17 0.18 0.21 0.22 0.24 0.26 0.29 0.32 0.37 0.40 0.43 0.47 0.49 0.53 0.56 0.59 0.63 0.66 0.69 0.71 0.75 0.75 0.78 0.80 0.83 0.85 0.84 0.86 0.84 0.81 0.88 0.92 0.94 0.93 0.92 0.90 0.96 0.98 0.99 1.01 1.04 1.13
0.14 0.17 0.22 0.23 0.23 0.21 0.18 0.18 0.18 0.16 0.15 0.17 0.17 0.16 0.15 0.16 0.18 0.17 0.18 0.21 0.21 0.21 0.21 0.16 0.12 0.09 0.09 0.08 0.09 0.11 0.14 0.14 0.14 0.15 0.17 0.18 0.18 0.18 0.18 0.18 0.17 0.16 0.15 0.16 0.17 0.18 0.20 0.21 0.22 0.23 0.25 0.30 0.34 0.37 0.39 0.43 0.47 0.50 0.51 0.56 0.60 0.63 0.66 0.70 0.74 0.76 0.79 0.79 0.79 0.81 0.83 0.85 0.84 0.84 0.83 0.84 0.83 0.85 0.86 0.88 0.88 0.90 0.98 0.99 1.00 1.00
0.18 0.22 0.24 0.21 0.21 0.21 0.20 0.18 0.18 0.17 0.14 0.15 0.17 0.17 0.17 0.18 0.17 0.18 0.18 0.16 0.14 0.12 0.18 0.14 0.08 0.06 0.09 0.11 0.10 0.12 0.11 0.10 0.12 0.12 0.13 0.15 0.15 0.16 0.15 0.15 0.16 0.17 0.18 0.18 0.18 0.18 0.20 0.21 0.23 0.24 0.26 0.27 0.30 0.34 0.37 0.42 0.46 0.50 0.53 0.57 0.61 0.64 0.66 0.68 0.71 0.75 0.76 0.74 0.73 0.72 0.70 0.67 0.67 0.66 0.68 0.65 0.65 0.72 0.77 0.78 0.87 0.93 0.96 0.98 1.02 1.08
0.20 0.25 0.23 0.21 0.20 0.20 0.20 0.19 0.21 0.20 0.16 0.14 0.14 0.20 0.18 0.17 0.17 0.17 0.15 0.14 0.10 0.08 0.15 0.20 0.09 0.06 0.08 0.08 0.08 0.09 0.09 0.09 0.10 0.11 0.11 0.12 0.12 0.13 0.13 0.14 0.15 0.16 0.17 0.19 0.21 0.22 0.22 0.23 0.23 0.24 0.24 0.26 0.27 0.30 0.37 0.43 0.47 0.52 0.55 0.57 0.60 0.61 0.63 0.67 0.69 0.73 0.73 0.72 0.72 0.70 0.68 0.66 0.64 0.61 0.64 0.70 0.75 0.76 0.79 0.84 0.85 0.88 0.94 0.98 1.01 1.09
0.22 0.23 0.21 0.22 0.21 0.20 0.19 0.17 0.22 0.21 0.17 0.14 0.22 0.23 0.20 0.17 0.16 0.16 0.15 0.15 0.13 0.17 0.17 0.17 0.14 0.08 0.06 0.07 0.10 0.11 0.11 0.09 0.09 0.09 0.10 0.12 0.13 0.13 0.14 0.15 0.15 0.17 0.18 0.20 0.21 0.23 0.24 0.25 0.25 0.23 0.25 0.27 0.28 0.32 0.38 0.41 0.46 0.49 0.52 0.55 0.57 0.61 0.63 0.66 0.69 0.70 0.72 0.68 0.68 0.68 0.68 0.68 0.66 0.65 0.63 0.69 0.73 0.78 0.80 0.81 0.83 0.86 0.89 0.95 0.98 0.99
0.21 0.19 0.19 0.18 0.19 0.19 0.18 0.20 0.23 0.22 0.18 0.20 0.26 0.26 0.21 0.21 0.21 0.20 0.17 0.14 0.15 0.13 0.10 0.12 0.18 0.10 0.08 0.10 0.12 0.12 0.09 0.08 0.08 0.09 0.11 0.13 0.15 0.16 0.16 0.16 0.17 0.19 0.21 0.21 0.22 0.22 0.24 0.25 0.27 0.27 0.27 0.29 0.32 0.34 0.36 0.40 0.44 0.49 0.52 0.55 0.58 0.59 0.62 0.65 0.68 0.68 0.69 0.69 0.68 0.67 0.67 0.65 0.67 0.69 0.70 0.73 0.76 0.75 0.78 0.77 0.81 0.84 0.87 0.91 0.95 0.97
0.25 0.23 0.23 0.21 0.18 0.16 0.20 0.24 0.23 0.21 0.17 0.26 0.28 0.28 0.26 0.24 0.21 0.19 0.16 0.15 0.13 0.12 0.08 0.10 0.14 0.08 0.07 0.08 0.09 0.10 0.09 0.08 0.09 0.12 0.14 0.14 0.16 0.17 0.16 0.17 0.19 0.21 0.22 0.24 0.24 0.25 0.26 0.28 0.29 0.31 0.33 0.34 0.36 0.38 0.40 0.42 0.45 0.48 0.50 0.52 0.54 0.55 0.59 0.63 0.64 0.66 0.66 0.68 0.68 0.66 0.66 0.64 0.65 0.69 0.71 0.73 0.72 0.73 0.75 0.74 0.76 0.79 0.83 0.86 0.89 0.93
0.29 0.32 0.33 0.24 0.20 0.21 0.24 0.26 0.25 0.23 0.23 0.30 0.26 0.21 0.20 0.19 0.19 0.19 0.18 0.15 0.12 0.08 0.08 0.11 0.13 0.10 0.06 0.07 0.08 0.08 0.08 0.09 0.12 0.13 0.15 0.17 0.17 0.18 0.19 0.19 0.20 0.21 0.21 0.22 0.24 0.25 0.27 0.29 0.29 0.31 0.31 0.34 0.37 0.39 0.40 0.41 0.43 0.45 0.47 0.49 0.49 0.52 0.55 0.59 0.60 0.61 0.61 0.65 0.66 0.65 0.65 0.65 0.65 0.67 0.68 0.68 0.68 0.70 0.71 0.70 0.71 0.74 0.78 0.83 0.85 0.89
0.28 0.28 0.26 0.28 0.31 0.29 0.28 0.23 0.28 0.28 0.28 0.24 0.19 0.18 0.17 0.15 0.18 0.15 0.14 0.15 0.09 0.07 0.12 0.14 0.13 0.13 0.07 0.08 0.09 0.11 0.13 0.14 0.14 0.13 0.15 0.15 0.16 0.17 0.17 0.18 0.19 0.20 0.21 0.22 0.23 0.24 0.26 0.27 0.28 0.31 0.31 0.33 0.35 0.38 0.39 0.40 0.42 0.44 0.45 0.47 0.46 0.48 0.51 0.54 0.56 0.58 0.59 0.61 0.63 0.64 0.65 0.65 0.66 0.67 0.66 0.65 0.64 0.66 0.67 0.68 0.68 0.72 0.76 0.77 0.81 0.85
0.23 0.23 0.28 0.29 0.33 0.27 0.22 0.20 0.24 0.26 0.26 0.21 0.18 0.16 0.11 0.09 0.10 0.08 0.12 0.08 0.07 0.06 0.13 0.17 0.16 0.11 0.10 0.10 0.10 0.12 0.12 0.15 0.16 0.15 0.16 0.17 0.17 0.17 0.18 0.18 0.20 0.21 0.22 0.22 0.23 0.24 0.24 0.25 0.26 0.27 0.29 0.32 0.33 0.35 0.38 0.39 0.41 0.43 0.44 0.45 0.45 0.45 0.50 0.52 0.54 0.54 0.57 0.59 0.60 0.62 0.64 0.65 0.67 0.67 0.67 0.66 0.66 0.68 0.67 0.68 0.68 0.70 0.70 0.73 0.75 0.78
0.20 0.27 0.27 0.27 0.29 0.30 0.25 0.16 0.19 0.18 0.22 0.19 0.15 0.13 0.09 0.07 0.07 0.06 0.07 0.10 0.09 0.11 0.14 0.14 0.17 0.10 0.11 0.13 0.14 0.12 0.12 0.15 0.17 0.19 0.19 0.20 0.19 0.19 0.20 0.21 0.22 0.23 0.23 0.23 0.24 0.24 0.25 0.26 0.27 0.29 0.30 0.31 0.33 0.36 0.38 0.40 0.41 0.43 0.44 0.45 0.45 0.45 0.49 0.51 0.53 0.54 0.55 0.57 0.60 0.63 0.64 0.65 0.67 0.66 0.66 0.66 0.66 0.68 0.68 0.69 0.68 0.69 0.70 0.70 0.71 0.74
0.11 0.13 0.19 0.23 0.19 0.29 0.24 0.19 0.18 0.16 0.18 0.16 0.17 0.13 0.09 0.08 0.07 0.05 0.06 0.05 0.06 0.07 0.13 0.18 0.11 0.08 0.08 0.12 0.18 0.18 0.19 0.20 0.20 0.20 0.21 0.22 0.22 0.22 0.23 0.23 0.24 0.24 0.24 0.25 0.24 0.24 0.25 0.27 0.28 0.28 0.30 0.31 0.33 0.35 0.38 0.40 0.41 0.43 0.43 0.44 0.44 0.44 0.47 0.49 0.51 0.54 0.54 0.56 0.59 0.62 0.64 0.65 0.66 0.66 0.66 0.66 0.68 0.68 0.68 0.69 0.69 0.69 0.71 0.70 0.71 0.73
0.13 0.12 0.19 0.25 0.25 0.26 0.20 0.23 0.24 0.20 0.19 0.21 0.20 0.18 0.12 0.09 0.11 0.07 0.08 0.08 0.08 0.08 0.09 0.12 0.09 0.11 0.10 0.16 0.19 0.18 0.19 0.18 0.19 0.19 0.19 0.20 0.21 0.21 0.20 0.20 0.20 0.22 0.24 0.26 0.25 0.25 0.26 0.28 0.29 0.29 0.30 0.31 0.32 0.33 0.36 0.38 0.40 0.41 0.42 0.44 0.44 0.44 0.46 0.49 0.51 0.52 0.54 0.56 0.59 0.61 0.62 0.64 0.65 0.66 0.66 0.66 0.67 0.68 0.69 0.69 0.69 0.69 0.70 0.70 0.72 0.74
0.16 0.13 0.24 0.25 0.27 0.25 0.23 0.24 0.23 0.23 0.11 0.18 0.18 0.12 0.13 0.17 0.13 0.11 0.11 0.14 0.12 0.10 0.07 0.12 0.10 0.12 0.15 0.14 0.16 0.17 0.16 0.15 0.16 0.18 0.18 0.19 0.20 0.20 0.19 0.19 0.20 0.22 0.24 0.25 0.26 0.26 0.27 0.29 0.29 0.31 0.31 0.32 0.33 0.34 0.34 0.36 0.39 0.40 0.41 0.42 0.43 0.45 0.47 0.48 0.50 0.52 0.55 0.57 0.58 0.60 0.62 0.63 0.64 0.64 0.63 0.63 0.64 0.66 0.68 0.69 0.70 0.70 0.71 0.73 0.73 0.73
0.13 0.12 0.24 0.22 0.19 0.26 0.31 0.29 0.26 0.25 0.22 0.20 0.14 0.15 0.22 0.24 0.20 0.12 0.07 0.11 0.09 0.06 0.06 0.10 0.07 0.08 0.08 0.06 0.13 0.14 0.13 0.14 0.15 0.15 0.16 0.17 0.19 0.19 0.20 0.21 0.21 0.24 0.25 0.27 0.28 0.28 0.29 0.29 0.30 0.31 0.33 0.34 0.34 0.35 0.37 0.38 0.41 0.42 0.42 0.42 0.42 0.44 0.44 0.47 0.49 0.51 0.54 0.56 0.57 0.59 0.61 0.63 0.63 0.63 0.63 0.64 0.65 0.67 0.67 0.68 0.69 0.70 0.70 0.70 0.72 0.73
0.19 0.12 0.19 0.25 0.23 0.27 0.31 0.29 0.24 0.28 0.28 0.19 0.16 0.27 0.15 0.13 0.11 0.15 0.11 0.07 0.06 0.06 0.06 0.07 0.08 0.08 0.08 0.07 0.10 0.10 0.11 0.12 0.14 0.14 0.15 0.16 0.17 0.19 0.20 0.22 0.24 0.26 0.26 0.27 0.28 0.28 0.29 0.29 0.30 0.32 0.32 0.34 0.36 0.37 0.38 0.39 0.41 0.42 0.44 0.45 0.45 0.44 0.46 0.47 0.50 0.53 0.55 0.57 0.58 0.60 0.61 0.61 0.62 0.64 0.65 0.66 0.67 0.68 0.66 0.66 0.67 0.67 0.69 0.71 0.73 0.73
0.20 0.12 0.16 0.27 0.24 0.27 0.27 0.25 0.14 0.18 0.27 0.28 0.28 0.22 0.25 0.19 0.14 0.12 0.11 0.11 0.09 0.06 0.06 0.05 0.07 0.05 0.08 0.09 0.11 0.11 0.12 0.12 0.13 0.14 0.14 0.16 0.17 0.18 0.19 0.21 0.25 0.25 0.27 0.28 0.29 0.30 0.31 0.32 0.33 0.33 0.33 0.34 0.35 0.37 0.39 0.41 0.42 0.42 0.44 0.45 0.47 0.48 0.49 0.50 0.51 0.53 0.54 0.57 0.59 0.60 0.61 0.62 0.64 0.65 0.66 0.66 0.66 0.65 0.65 0.66 0.67 0.68 0.69 0.70 0.73 0.74
0.17 0.17 0.11 0.23 0.30 0.27 0.18 0.21 0.16 0.18 0.16 0.19 0.19 0.18 0.20 0.18 0.23 0.19 0.18 0.12 0.09 0.07 0.07 0.06 0.05 0.05 0.09 0.11 0.12 0.12 0.13 0.14 0.15 0.16 0.18 0.19 0.20 0.21 0.22 0.23 0.25 0.27 0.28 0.30 0.30 0.32 0.32 0.32 0.33 0.35 0.36 0.36 0.37 0.39 0.40 0.42 0.42 0.44 0.45 0.45 0.47 0.48 0.48 0.49 0.51 0.54 0.55 0.58 0.59 0.59 0.59 0.60 0.63 0.64 0.66 0.66 0.66 0.65 0.66 0.67 0.68 0.69 0.71 0.73 0.72 0.75
0.17 0.17 0.12 0.20 0.22 0.20 0.18 0.25 0.23 0.22 0.19 0.16 0.16 0.14 0.15 0.15 0.14 0.11 0.10 0.17 0.14 0.10 0.08 0.07 0.05 0.07 0.11 0.14 0.13 0.13 0.15 0.16 0.18 0.19 0.19 0.21 0.23 0.25 0.26 0.27 0.29 0.29 0.30 0.31 0.32 0.33 0.33 0.34 0.35 0.36 0.35 0.36 0.37 0.37 0.39 0.42 0.44 0.44 0.44 0.46 0.47 0.48 0.49 0.49 0.52 0.54 0.56 0.58 0.59 0.59 0.59 0.61 0.63 0.65 0.65 0.65 0.66 0.66 0.67 0.68 0.69 0.71 0.72 0.71 0.74 0.76
0.21 0.21 0.17 0.16 0.18 0.18 0.22 0.29 0.31 0.29 0.28 0.25 0.22 0.17 0.20 0.19 0.17 0.13 0.09 0.12 0.15 0.14 0.13 0.11 0.09 0.07 0.13 0.13 0.15 0.18 0.19 0.20 0.21 0.22 0.22 0.24 0.26 0.28 0.29 0.30 0.31 0.31 0.31 0.31 0.32 0.33 0.35 0.36 0.35 0.33 0.32 0.33 0.34 0.37 0.39 0.41 0.43 0.44 0.46 0.47 0.48 0.47 0.48 0.51 0.53 0.56 0.58 0.58 0.59 0.59 0.61 0.62 0.63 0.64 0.65 0.65 0.66 0.67 0.68 0.70 0.72 0.74 0.73 0.73 0.74 0.76
0.25 0.19 0.16 0.17 0.23 0.27 0.31 0.33 0.34 0.33 0.30 0.26 0.26 0.26 0.23 0.19 0.19 0.16 0.14 0.16 0.14 0.14 0.12 0.12 0.09 0.08 0.14 0.16 0.19 0.19 0.20 0.22 0.24 0.24 0.24 0.25 0.27 0.28 0.29 0.30 0.30 0.31 0.33 0.34 0.34 0.33 0.32 0.31 0.33 0.34 0.33 0.34 0.36 0.38 0.40 0.43 0.44 0.46 0.47 0.48 0.49 0.48 0.49 0.52 0.54 0.57 0.58 0.59 0.60 0.61 0.61 0.62 0.64 0.65 0.66 0.66 0.67 0.68 0.70 0.72 0.73 0.75 0.74 0.74 0.75 0.73
0.20 0.23 0.18 0.16 0.16 0.20 0.23 0.28 0.28 0.33 0.31 0.25 0.23 0.26 0.26 0.26 0.25 0.24 0.22 0.22 0.15 0.15 0.14 0.12 0.09 0.08 0.18 0.20 0.21 0.22 0.22 0.23 0.23 0.26 0.26 0.25 0.27 0.29 0.30 0.30 0.31 0.31 0.30 0.30 0.30 0.32 0.34 0.34 0.35 0.35 0.36 0.37 0.40 0.42 0.43 0.44 0.45 0.46 0.47 0.50 0.49 0.49 0.51 0.53 0.56 0.57 0.59 0.59 0.59 0.61 0.62 0.62 0.64 0.65 0.66 0.67 0.69 0.69 0.71 0.72 0.73 0.74 0.73 0.74 0.73 0.73
0.25 0.23 0.20 0.16 0.13 0.11 0.11 0.13 0.14 0.18 0.23 0.27 0.28 0.27 0.28 0.26 0.25 0.23 0.19 0.20 0.15 0.16 0.17 0.14 0.12 0.13 0.19 0.20 0.21 0.21 0.22 0.22 0.23 0.24 0.26 0.26 0.26 0.26 0.28 0.30 0.31 0.32 0.33 0.34 0.36 0.36 0.37 0.37 0.37 0.38 0.40 0.42 0.43 0.44 0.45 0.45 0.47 0.48 0.49 0.49 0.51 0.51 0.52 0.53 0.56 0.57 0.59 0.60 0.60 0.60 0.61 0.62 0.64 0.65 0.66 0.67 0.69 0.70 0.71 0.72 0.73 0.73 0.74 0.74 0.73 0.74
0.29 0.29 0.25 0.21 0.18 0.15 0.16 0.18 0.23 0.26 0.26 0.22 0.23 0.25 0.26 0.28 0.29 0.27 0.24 0.21 0.16 0.16 0.16 0.17 0.16 0.14 0.16 0.19 0.20 0.24 0.24 0.24 0.24 0.26 0.26 0.27 0.29 0.31 0.33 0.34 0.35 0.36 0.37 0.37 0.37 0.39 0.40 0.41 0.42 0.45 0.47 0.47 0.47 0.47 0.48 0.47 0.48 0.49 0.49 0.49 0.51 0.53 0.54 0.55 0.56 0.58 0.59 0.60 0.61 0.61 0.62 0.63 0.63 0.65 0.66 0.67 0.69 0.70 0.71 0.71 0.72 0.73 0.72 0.74 0.74 0.73
0.36 0.30 0.30 0.27 0.25 0.24 0.25 0.26 0.29 0.29 0.25 0.26 0.25 0.25 0.28 0.28 0.29 0.27 0.24 0.20 0.22 0.21 0.17 0.19 0.20 0.19 0.16 0.19 0.22 0.24 0.25 0.25 0.26 0.28 0.29 0.29 0.31 0.33 0.34 0.36 0.38 0.38 0.39 0.42 0.44 0.46 0.46 0.47 0.48 0.49 0.49 0.49 0.49 0.50 0.50 0.51 0.51 0.50 0.50 0.50 0.52 0.53 0.54 0.56 0.56 0.57 0.59 0.60 0.61 0.61 0.62 0.64 0.66 0.66 0.66 0.67 0.68 0.69 0.70 0.71 0.71 0.72 0.73 0.74 0.73 0.72
0.38 0.32 0.35 0.34 0.32 0.33 0.34 0.33 0.34 0.32 0.31 0.30 0.30 0.29 0.29 0.31 0.30 0.28 0.26 0.25 0.26 0.23 0.18 0.19 0.23 0.21 0.19 0.21 0.26 0.28 0.27 0.27 0.29 0.31 0.32 0.35 0.37 0.39 0.39 0.39 0.38 0.40 0.43 0.45 0.47 0.49 0.49 0.49 0.50 0.51 0.51 0.51 0.52 0.52 0.52 0.52 0.52 0.53 0.53 0.53 0.54 0.54 0.55 0.57 0.57 0.57 0.58 0.60 0.61 0.61 0.63 0.65 0.66 0.67 0.67 0.68 0.68 0.68 0.68 0.69 0.70 0.72 0.73 0.73 0.73 0.73
0.44 0.38 0.40 0.39 0.36 0.37 0.38 0.37 0.39 0.36 0.36 0.35 0.34 0.34 0.34 0.34 0.32 0.31 0.29 0.30 0.30 0.27 0.27 0.25 0.26 0.24 0.24 0.25 0.30 0.31 0.32 0.33 0.35 0.38 0.39 0.39 0.40 0.41 0.42 0.43 0.43 0.44 0.45 0.47 0.48 0.49 0.50 0.51 0.52 0.53 0.53 0.53 0.53 0.53 0.53 0.54 0.54 0.54 0.54 0.54 0.55 0.55 0.57 0.58 0.58 0.59 0.59 0.60 0.61 0.62 0.64 0.65 0.66 0.67 0.67 0.68 0.67 0.68 0.69 0.69 0.70 0.71 0.71 0.71 0.72 0.72
0.44 0.39 0.44 0.42 0.38 0.38 0.40 0.41 0.41 0.40 0.39 0.36 0.38 0.39 0.39 0.37 0.35 0.35 0.34 0.34 0.36 0.34 0.32 0.30 0.29 0.27 0.29 0.35 0.36 0.38 0.40 0.40 0.40 0.39 0.40 0.41 0.43 0.45 0.45 0.44 0.45 0.46 0.48 0.50 0.50 0.50 0.50 0.52 0.53 0.54 0.55 0.55 0.55 0.55 0.55 0.56 0.56 0.56 0.56 0.56 0.57 0.57 0.58 0.58 0.57 0.58 0.59 0.60 0.62 0.63 0.64 0.65 0.65 0.65 0.64 0.65 0.66 0.67 0.68 0.68 0.69 0.69 0.69 0.69 0.70 0.70
0.48 0.42 0.48 0.43 0.37 0.35 0.39 0.40 0.41 0.43 0.42 0.40 0.39 0.39 0.38 0.36 0.34 0.36 0.35 0.37 0.36 0.33 0.34 0.35 0.32 0.28 0.32 0.41 0.41 0.41 0.43 0.42 0.40 0.41 0.43 0.45 0.48 0.47 0.44 0.45 0.48 0.49 0.50 0.49 0.49 0.51 0.52 0.54 0.55 0.56 0.56 0.56 0.57 0.58 0.58 0.58 0.58 0.58 0.58 0.59 0.58 0.59 0.60 0.59 0.59 0.58 0.59 0.60 0.62 0.64 0.64 0.65 0.66 0.65 0.65 0.65 0.64 0.64 0.65 0.66 0.67 0.67 0.68 0.68 0.69 0.70
0.48 0.45 0.41 0.41 0.36 0.33 0.38 0.42 0.41 0.42 0.41 0.37 0.36 0.36 0.36 0.39 0.40 0.41 0.42 0.43 0.41 0.40 0.37 0.33 0.31 0.35 0.39 0.43 0.41 0.40 0.43 0.44 0.44 0.44 0.47 0.50 0.50 0.48 0.48 0.49 0.49 0.49 0.49 0.51 0.52 0.52 0.53 0.54 0.56 0.57 0.58 0.58 0.59 0.59 0.60 0.61 0.59 0.59 0.60 0.59 0.61 0.61 0.60 0.59 0.59 0.59 0.59 0.60 0.61 0.61 0.62 0.63 0.64 0.64 0.64 0.65 0.65 0.66 0.66 0.66 0.67 0.67 0.68 0.68 0.69 0.70
0.50 0.47 0.43 0.46 0.36 0.36 0.38 0.42 0.43 0.37 0.28 0.28 0.36 0.41 0.43 0.38 0.38 0.38 0.38 0.39 0.41 0.44 0.40 0.42 0.41 0.43 0.43 0.43 0.41 0.39 0.40 0.44 0.48 0.52 0.53 0.50 0.49 0.50 0.50 0.51 0.51 0.51 0.52 0.53 0.53 0.54 0.55 0.57 0.58 0.60 0.60 0.60 0.61 0.61 0.61 0.61 0.60 0.60 0.61 0.61 0.61 0.60 0.59 0.59 0.59 0.58 0.58 0.58 0.59 0.60 0.61 0.62 0.62 0.61 0.63 0.64 0.65 0.66 0.66 0.66 0.66 0.67 0.68 0.69 0.69 0.68
0.46 0.47 0.45 0.47 0.39 0.36 0.41 0.42 0.35 0.27 0.28 0.38 0.45 0.46 0.45 0.45 0.45 0.42 0.40 0.41 0.43 0.46 0.46 0.45 0.44 0.43 0.42 0.43 0.43 0.44 0.47 0.51 0.53 0.51 0.51 0.52 0.52 0.51 0.50 0.50 0.51 0.51 0.52 0.53 0.54 0.55 0.56 0.57 0.58 0.59 0.60 0.61 0.61 0.62 0.61 0.61 0.61 0.60 0.60 0.60 0.59 0.59 0.58 0.57 0.56 0.55 0.56 0.56 0.57 0.58 0.59 0.61 0.61 0.61 0.62 0.63 0.64 0.64 0.64 0.65 0.66 0.66 0.67 0.68 0.67 0.67
0.43 0.42 0.42 0.41 0.41 0.41 0.37 0.35 0.24 0.25 0.36 0.40 0.42 0.43 0.46 0.46 0.44 0.42 0.39 0.42 0.43 0.44 0.45 0.44 0.44 0.44 0.44 0.44 0.45 0.49 0.49 0.49 0.51 0.52 0.52 0.53 0.53 0.51 0.50 0.50 0.52 0.53 0.52 0.54 0.55 0.56 0.57 0.57 0.58 0.58 0.59 0.62 0.62 0.62 0.62 0.61 0.61 0.59 0.58 0.60 0.58 0.57 0.56 0.54 0.53 0.52 0.53 0.53 0.54 0.56 0.57 0.58 0.59 0.59 0.61 0.62 0.63 0.63 0.63 0.64 0.65 0.65 0.66 0.67 0.67 0.67
0.46 0.44 0.42 0.35 0.42 0.31 0.32 0.31 0.29 0.38 0.35 0.36 0.34 0.35 0.37 0.35 0.37 0.37 0.31 0.34 0.41 0.44 0.44 0.42 0.42 0.43 0.43 0.44 0.45 0.45 0.47 0.48 0.46 0.48 0.52 0.52 0.52 0.52 0.52 0.52 0.53 0.54 0.55 0.56 0.57 0.58 0.60 0.61 0.61 0.61 0.61 0.61 0.62 0.61 0.61 0.61 0.61 0.59 0.58 0.58 0.57 0.56 0.55 0.54 0.52 0.52 0.52 0.51 0.53 0.54 0.55 0.56 0.56 0.56 0.58 0.59 0.60 0.60 0.61 0.62 0.63 0.65 0.66 0.65 0.65 0.65
0.48 0.39 0.40 0.33 0.33 0.36 0.29 0.26 0.28 0.28 0.23 0.25 0.30 0.38 0.43 0.44 0.46 0.46 0.41 0.35 0.44 0.45 0.47 0.45 0.43 0.44 0.45 0.45 0.45 0.45 0.45 0.40 0.36 0.40 0.46 0.48 0.51 0.51 0.53 0.54 0.55 0.56 0.56 0.57 0.59 0.60 0.61 0.62 0.63 0.63 0.62 0.61 0.61 0.62 0.62 0.61 0.60 0.59 0.58 0.57 0.57 0.57 0.56 0.56 0.54 0.54 0.54 0.54 0.55 0.56 0.57 0.58 0.58 0.57 0.58 0.58 0.58 0.59 0.60 0.61 0.63 0.63 0.64 0.63 0.63 0.63
0.52 0.51 0.44 0.38 0.33 0.33 0.30 0.26 0.26 0.24 0.26 0.30 0.32 0.39 0.42 0.46 0.47 0.48 0.39 0.31 0.41 0.44 0.46 0.45 0.44 0.45 0.44 0.42 0.42 0.42 0.37 0.31 0.32 0.37 0.42 0.45 0.48 0.50 0.50 0.52 0.53 0.54 0.55 0.56 0.56 0.56 0.58 0.59 0.60 0.61 0.62 0.61 0.60 0.62 0.63 0.61 0.60 0.58 0.57 0.57 0.57 0.57 0.57 0.56 0.56 0.56 0.56 0.58 0.59 0.60 0.60 0.60 0.60 0.60 0.60 0.59 0.60 0.61 0.61 0.62 0.62 0.63 0.64 0.64 0.63 0.63
0.43 0.44 0.43 0.38 0.35 0.35 0.31 0.27 0.25 0.30 0.28 0.32 0.37 0.39 0.43 0.47 0.48 0.41 0.27 0.26 0.37 0.43 0.45 0.45 0.44 0.44 0.44 0.44 0.42 0.39 0.36 0.31 0.32 0.35 0.40 0.43 0.45 0.47 0.47 0.47 0.49 0.50 0.51 0.52 0.53 0.54 0.55 0.56 0.56 0.55 0.56 0.57 0.59 0.61 0.61 0.60 0.58 0.56 0.55 0.56 0.57 0.56 0.56 0.56 0.56 0.58 0.59 0.60 0.61 0.61 0.62 0.62 0.62 0.62 0.61 0.61 0.62 0.63 0.63 0.64 0.64 0.64 0.64 0.64 0.64 0.63
0.33 0.35 0.38 0.32 0.34 0.34 0.33 0.31 0.33 0.32 0.36 0.36 0.37 0.41 0.43 0.49 0.43 0.27 0.20 0.27 0.39 0.43 0.45 0.45 0.45 0.45 0.44 0.43 0.43 0.38 0.39 0.40 0.40 0.43 0.45 0.46 0.45 0.46 0.47 0.48 0.48 0.49 0.48 0.48 0.49 0.51 0.50 0.51 0.51 0.51 0.52 0.54 0.55 0.57 0.58 0.57 0.55 0.54 0.54 0.55 0.54 0.55 0.57 0.57 0.58 0.59 0.59 0.60 0.61 0.62 0.63 0.64 0.64 0.64 0.64 0.65 0.64 0.65 0.65 0.65 0.65 0.65 0.64 0.64 0.63 0.63
0.28 0.30 0.32 0.33 0.30 0.29 0.30 0.28 0.28 0.31 0.35 0.36 0.38 0.39 0.44 0.37 0.27 0.23 0.32 0.41 0.41 0.41 0.43 0.44 0.42 0.44 0.43 0.41 0.41 0.41 0.42 0.44 0.45 0.45 0.44 0.43 0.43 0.44 0.46 0.46 0.46 0.47 0.48 0.48 0.48 0.47 0.47 0.47 0.47 0.48 0.48 0.51 0.52 0.52 0.52 0.52 0.52 0.53 0.53 0.54 0.54 0.56 0.57 0.57 0.57 0.58 0.59 0.59 0.60 0.61 0.62 0.63 0.65 0.66 0.66 0.66 0.66 0.65 0.65 0.66 0.66 0.65 0.64 0.63 0.62 0.61
0.20 0.21 0.22 0.23 0.27 0.29 0.28 0.25 0.23 0.19 0.27 0.33 0.36 0.35 0.40 0.28 0.29 0.36 0.38 0.40 0.42 0.41 0.40 0.39 0.39 0.39 0.40 0.36 0.37 0.37 0.38 0.39 0.39 0.40 0.40 0.40 0.41 0.41 0.43 0.44 0.43 0.43 0.44 0.44 0.45 0.46 0.46 0.45 0.45 0.45 0.45 0.46 0.48 0.49 0.49 0.49 0.48 0.49 0.50 0.50 0.53 0.55 0.55 0.55 0.55 0.56 0.57 0.58 0.59 0.60 0.60 0.61 0.62 0.63 0.64 0.65 0.65 0.65 0.63 0.64 0.63 0.63 0.62 0.61 0.61 0.60
0.25 0.16 0.19 0.20 0.22 0.16 0.17 0.16 0.16 0.20 0.24 0.32 0.27 0.19 0.29 0.31 0.36 0.37 0.35 0.33 0.37 0.37 0.34 0.31 0.31 0.31 0.33 0.34 0.35 0.36 0.37 0.37 0.38 0.39 0.40 0.40 0.41 0.41 0.42 0.43 0.43 0.43 0.43 0.44 0.45 0.44 0.44 0.42 0.41 0.40 0.41 0.43 0.44 0.45 0.46 0.45 0.44 0.45 0.46 0.47 0.52 0.53 0.54 0.54 0.54 0.54 0.53 0.54 0.55 0.56 0.58 0.59 0.60 0.61 0.62 0.62 0.62 0.62 0.61 0.61 0.62 0.62 0.62 0.61 0.61 0.60
0.26 0.17 0.17 0.13 0.21 0.17 0.14 0.15 0.21 0.26 0.26 0.30 0.30 0.31 0.36 0.39 0.39 0.38 0.36 0.34 0.35 0.38 0.41 0.38 0.37 0.40 0.39 0.40 0.39 0.39 0.38 0.39 0.39 0.41 0.40 0.40 0.41 0.41 0.40 0.40 0.40 0.40 0.40 0.40 0.40 0.42 0.43 0.41 0.40 0.40 0.39 0.40 0.41 0.42 0.43 0.44 0.42 0.41 0.42 0.46 0.49 0.51 0.52 0.53 0.54 0.53 0.53 0.53 0.53 0.53 0.54 0.56 0.57 0.59 0.60 0.61 0.62 0.62 0.62 0.62 0.62 0.61 0.61 0.61 0.61 0.60
0.24 0.25 0.26 0.20 0.21 0.26 0.27 0.27 0.30 0.29 0.29 0.30 0.35 0.38 0.37 0.38 0.40 0.39 0.37 0.36 0.39 0.41 0.43 0.40 0.40 0.42 0.43 0.44 0.41 0.39 0.39 0.40 0.40 0.40 0.40 0.40 0.39 0.40 0.40 0.40 0.39 0.39 0.39 0.40 0.39 0.40 0.40 0.40 0.39 0.38 0.37 0.37 0.38 0.39 0.39 0.40 0.40 0.38 0.39 0.43 0.46 0.48 0.49 0.51 0.52 0.52 0.53 0.53 0.53 0.53 0.53 0.53 0.54 0.56 0.57 0.59 0.60 0.61 0.61 0.61 0.60 0.59 0.59 0.59 0.58 0.57
0.21 0.26 0.24 0.19 0.23 0.20 0.18 0.27 0.26 0.29 0.31 0.32 0.36 0.41 0.41 0.42 0.40 0.40 0.37 0.38 0.37 0.39 0.41 0.43 0.43 0.44 0.43 0.43 0.41 0.39 0.39 0.40 0.38 0.38 0.38 0.38 0.37 0.37 0.37 0.37 0.37 0.37 0.37 0.37 0.38 0.39 0.38 0.37 0.36 0.35 0.34 0.34 0.35 0.37 0.37 0.37 0.37 0.38 0.38 0.38 0.40 0.43 0.46 0.48 0.49 0.50 0.51 0.52 0.52 0.53 0.53 0.53 0.53 0.54 0.55 0.56 0.57 0.58 0.59 0.59 0.58 0.56 0.56 0.56 0.54 0.52
0.15 0.25 0.20 0.22 0.24 0.19 0.17 0.24 0.29 0.32 0.33 0.35 0.36 0.38 0.40 0.39 0.37 0.34 0.34 0.34 0.34 0.35 0.36 0.36 0.37 0.35 0.36 0.34 0.34 0.33 0.32 0.33 0.32 0.30 0.30 0.31 0.31 0.31 0.32 0.32 0.32 0.32 0.33 0.35 0.35 0.35 0.34 0.33 0.32 0.32 0.31 0.31 0.33 0.34 0.35 0.36 0.36 0.37 0.37 0.38 0.38 0.39 0.40 0.43 0.46 0.48 0.50 0.50 0.51 0.51 0.51 0.51 0.52 0.53 0.53 0.55 0.55 0.55 0.56 0.58 0.57 0.54 0.53 0.52 0.51 0.49
0.19 0.21 0.14 0.17 0.16 0.21 0.24 0.25 0.27 0.28 0.29 0.30 0.32 0.36 0.35 0.30 0.28 0.28 0.29 0.29 0.30 0.29 0.31 0.33 0.33 0.31 0.31 0.29 0.28 0.26 0.23 0.23 0.24 0.23 0.22 0.22 0.22 0.23 0.24 0.25 0.26 0.27 0.28 0.29 0.29 0.30 0.29 0.29 0.28 0.29 0.29 0.29 0.31 0.32 0.32 0.33 0.35 0.36 0.37 0.37 0.38 0.38 0.37 0.37 0.40 0.44 0.47 0.49 0.50 0.50 0.51 0.51 0.50 0.51 0.52 0.53 0.54 0.55 0.56 0.57 0.57 0.56 0.54 0.54 0.54 0.54
0.19 0.14 0.16 0.15 0.12 0.12 0.12 0.17 0.21 0.16 0.17 0.23 0.27 0.29 0.29 0.29 0.28 0.27 0.28 0.27 0.28 0.27 0.28 0.27 0.27 0.28 0.28 0.27 0.26 0.24 0.21 0.21 0.22 0.22 0.20 0.19 0.19 0.19 0.20 0.20 0.20 0.20 0.21 0.22 0.24 0.24 0.24 0.24 0.24 0.23 0.23 0.25 0.28 0.29 0.30 0.32 0.33 0.35 0.37 0.38 0.38 0.38 0.37 0.36 0.37 0.38 0.40 0.44 0.46 0.48 0.49 0.49 0.48 0.49 0.50 0.51 0.53 0.54 0.55 0.57 0.58 0.58 0.55 0.54 0.55 0.56
0.15 0.14 0.14 0.11 0.10 0.09 0.14 0.18 0.22 0.22 0.22 0.24 0.27 0.29 0.30 0.30 0.29 0.26 0.25 0.26 0.26 0.26 0.26 0.25 0.24 0.25 0.25 0.26 0.27 0.25 0.22 0.21 0.20 0.20 0.18 0.17 0.18 0.19 0.20 0.20 0.19 0.19 0.19 0.20 0.20 0.20 0.21 0.21 0.22 0.22 0.21 0.22 0.23 0.25 0.27 0.28 0.30 0.33 0.35 0.37 0.38 0.38 0.37 0.37 0.36 0.36 0.36 0.38 0.41 0.44 0.45 0.45 0.46 0.48 0.48 0.49 0.50 0.52 0.52 0.53 0.55 0.58 0.58 0.56 0.55 0.56
Wind_Speed
17 18 19 19 19 19 18 18 17 16 15 15 14 14 15 15 15 15 15 15 13 13 15 16 16 17 17 17 17 18 16 15 16 17 17 17 16 16 16 16 16 16 16 15 15 16 16 16 17 17 17 16 16 16 16 16 16 16 16 16 16 16 16 15 15 15 15 15 16 16 17 18 18 18 18 19 20 20 21 21 21 21 22 22 23 23
17 18 20 19 19 19 18 18 16 15 14 13 14 14 14 15 15 15 15 15 14 14 15 14 15 17 18 18 18 18 17 16 18 18 18 18 17 17 17 18 17 16 16 16 16 16 16 17 17 18 18 17 17 17 17 17 17 16 16 16 16 16 16 16 16 16 16 16 16 17 17 18 18 18 19 19 20 21 21 22 22 22 22 23 23 24
17 18 20 20 19 17 16 17 16 15 14 14 14 14 14 15 15 15 15 15 13 14 16 15 16 18 18 18 19 19 18 18 18 18 18 19 18 18 18 18 18 17 17 17 17 17 17 18 18 18 18 18 18 18 18 17 17 17 17 17 17 16 16 16 16 16 16 17 17 17 18 18 18 18 19 20 20 21 22 22 23 23 23 23 24 24
17 18 20 19 18 16 15 17 16 15 15 15 15 15 16 16 15 15 15 15 14 14 16 16 17 18 17 17 18 19 18 18 18 18 18 18 18 19 19 18 18 18 18 18 17 17 18 18 18 18 18 18 18 18 18 18 17 17 17 17 17 17 17 17 17 17 17 17 17 17 17 18 18 19 19 20 20 21 22 23 23 24 24 24 25 25
19 18 18 17 17 16 16 17 17 17 16 16 16 16 17 17 16 16 15 15 15 15 15 15 16 17 16 15 16 16 16 17 17 16 17 18 18 19 18 18 18 18 18 18 18 17 17 18 18 19 19 18 18 18 18 19 19 18 18 18 18 18 17 17 17 17 17 17 17 17 18 18 19 19 19 20 20 21 22 23 24 24 25 25 26 26
19 18 17 17 16 16 16 17 18 18 17 17 18 18 18 17 16 16 15 14 14 15 16 14 14 16 15 15 16 16 15 16 16 15 17 18 18 19 19 19 19 18 18 18 18 18 17 18 18 18 18 18 19 19 19 19 19 19 19 18 18 18 18 18 18 18 18 18 18 18 18 19 19 20 20 21 21 22 22 23 24 25 25 26 26 26
19 17 16 17 16 16 16 17 17 17 16 17 18 18 17 16 15 16 15 14 15 16 16 13 13 16 16 16 17 16 15 17 17 16 18 19 19 19 19 19 19 19 18 18 18 18 18 18 18 18 18 18 19 19 19 20 20 19 19 19 19 19 19 19 19 19 19 20 20 20 20 20 21 21 22 22 22 23 23 23 24 24 25 26 27 27
19 17 16 16 15 16 17 17 18 17 16 18 18 16 16 15 15 16 14 15 16 17 16 15 14 16 17 17 17 16 16 17 17 17 18 18 19 19 19 18 18 18 18 18 18 18 18 18 18 18 19 19 19 19 19 19 20 20 20 20 20 20 20 20 20 20 21 21 21 21 22 22 22 23 23 23 23 23 24 24 24 25 26 27 28 28
19 19 19 17 16 17 18 18 18 16 16 19 18 16 16 15 15 15 14 15 16 16 17 17 15 16 18 17 16 15 16 17 17 18 17 17 17 16 16 16 16 16 16 16 17 17 17 17 17 18 18 18 19 19 19 20 20 20 20 20 20 20 21 21 21 21 21 22 22 22 23 23 24 24 24 23 24 24 24 25 25 26 26 27 28 29
19 20 20 19 18 19 18 18 18 16 16 18 16 15 15 14 14 14 14 15 15 16 19 19 16 16 18 17 16 15 16 17 17 16 16 15 15 13 13 13 14 14 15 15 15 16 16 15 16 16 17 17 18 19 19 20 20 21 21 21 21 22 22 22 22 22 22 22 23 23 24 24 24 24 24 24 25 25 25 26 26 27 27 28 29 30
20 19 20 19 19 20 18 17 16 16 16 16 15 14 14 14 15 15 16 15 15 17 19 19 17 16 17 17 15 15 15 14 14 14 15 14 13 12 12 12 13 13 14 14 15 15 15 15 15 16 17 17 18 18 19 20 21 21 22 22 22 23 22 23 23 23 23 23 23 24 24 25 25 25 25 25 26 26 26 27 27 28 28 29 29 30
20 19 20 20 19 19 17 16 16 16 16 15 15 14 14 15 15 15 16 16 17 18 18 17 16 17 19 17 14 14 15 14 14 15 16 15 13 13 13 14 15 15 16 16 16 16 15 15 16 16 17 18 18 19 20 20 21 21 22 22 23 23 23 23 23 24 24 24 24 24 25 25 25 25 25 26 26 26 27 27 28 28 29 29 30 31
21 21 22 21 20 20 18 17 17 17 16 16 16 15 15 15 14 16 17 16 18 20 18 17 16 18 22 21 19 19 17 16 17 17 17 17 15 15 16 16 17 17 17 17 17 16 16 16 17 17 17 17 18 19 20 20 20 21 22 22 23 24 24 24 24 24 24 24 25 25 25 25 25 25 26 26 27 27 27 28 28 28 29 30 30 31
22 22 23 22 22 22 21 20 20 19 18 18 18 17 16 15 15 17 17 17 19 19 19 19 18 19 21 20 20 21 18 16 17 18 18 18 17 17 17 17 17 18 18 18 17 17 17 17 18 18 19 19 19 20 21 21 21 22 22 23 24 24 24 25 25 25 25 26 26 26 26 26 26 26 26 27 27 28 28 28 28 29 29 30 31 31
24 23 25 24 24 24 23 22 21 20 20 20 19 19 19 18 17 18 17 17 18 18 18 19 18 19 18 16 17 18 16 16 17 17 17 17 17 17 18 18 18 19 19 18 18 18 18 19 19 19 20 21 21 22 23 23 23 23 24 24 24 25 25 25 26 27 27 27 27 27 27 27 26 27 27 27 28 28 29 29 29 29 29 30 31 31
25 25 26 24 24 24 24 23 22 20 20 21 20 19 21 21 19 18 18 18 17 17 19 20 21 21 20 20 21 20 19 18 17 17 16 17 18 17 18 19 19 19 19 19 19 19 19 19 19 20 20 21 22 23 24 25 25 25 25 25 26 26 26 27 27 28 28 28 28 27 27 28 27 27 27 28 28 29 29 29 29 30 30 30 31 31
25 26 25 23 23 24 24 23 23 22 22 22 22 23 23 21 19 18 20 19 17 19 21 20 23 23 21 23 24 22 22 21 19 19 19 20 21 19 20 20 19 19 19 19 19 19 19 19 19 20 20 21 23 24 25 25 26 27 27 27 28 28 28 28 29 29 29 29 29 28 28 28 28 28 28 28 28 29 29 30 30 30 30 30 31 31
26 26 26 24 24 25 24 23 23 23 23 22 24 25 23 21 20 20 20 18 17 20 22 21 23 24 21 22 21 18 20 21 20 19 18 19 20 20 20 20 20 19 19 19 19 19 19 20 20 21 21 22 23 23 24 25 26 27 28 29 30 30 30 30 30 30 31 30 29 29 29 29 29 29 29 29 29 29 30 30 31 31 31 31 31 32
27 26 26 25 26 26 24 24 25 24 24 24 25 24 22 22 22 21 20 20 19 21 22 22 24 24 24 24 22 20 20 21 20 18 17 18 19 20 21 21 20 20 20 20 20 20 20 21 22 22 23 23 24 24 25 25 26 27 28 30 31 32 32 32 31 31 31 31 30 30 30 30 30 30 30 30 30 30 31 31 31 32 32 33 33 33
28 27 27 26 26 26 25 27 28 27 25 25 25 24 23 23 23 23 23 21 21 21 22 22 22 24 25 24 23 23 24 23 21 20 21 21 22 22 21 20 21 21 21 21 21 21 22 22 23 23 23 24 25 26 27 27 27 28 29 30 31 32 33 33 33 32 32 31 31 31 31 31 31 31 31 31 31 31 31 32 33 34 34 35 35 35
28 28 28 27 26 27 28 29 30 29 27 27 27 27 26 25 23 24 24 23 22 22 22 23 24 26 25 22 21 22 23 22 21 21 22 23 23 22 21 20 21 21 22 22 22 22 23 24 24 24 25 26 28 28 29 29 29 29 30 31 31 33 33 34 33 33 33 32 32 32 32 32 32 32 32 32 32 32 33 34 35 36 36 36 36 36
30 29 29 28 28 30 31 30 29 29 29 28 29 29 29 27 25 24 25 26 25 24 23 23 26 29 27 23 23 23 22 22 22 21 22 23 22 21 20 20 21 22 23 23 23 24 25 25 26 27 28 29 29 30 31 31 31 31 32 32 32 33 34 34 34 34 34 33 33 33 34 34 33 33 33 33 33 34 35 36 37 37 37 37 37 36
29 29 29 29 31 31 31 30 29 30 29 28 29 30 29 29 28 27 26 26 26 26 26 24 26 30 27 24 24 23 23 23 23 22 22 21 21 20 20 22 23 24 24 24 25 25 27 28 30 31 32 32 32 33 33 33 33 33 33 33 33 33 34 35 35 35 35 35 35 35 35 35 35 34 34 35 35 36 37 37 38 38 38 37 37 37
30 30 30 30 30 30 30 30 30 29 30 31 31 31 30 30 30 29 28 27 26 28 27 24 27 30 27 24 23 23 23 23 22 22 20 19 20 21 22 23 24 24 25 26 28 29 30 32 33 34 34 33 33 33 33 34 34 34 34 34 34 35 35 35 35 35 35 35 36 36 36 36 36 36 36 37 37 38 38 38 37 37 37 37 37 37
32 32 31 29 28 28 29 30 31 32 32 33 33 32 32 30 29 29 29 28 28 30 29 27 30 32 28 25 24 23 23 22 22 22 21 21 22 24 25 26 27 27 29 30 32 33 34 35 35 35 35 35 34 34 35 35 35 35 36 35 35 36 36 36 35 36 36 37 37 38 38 38 38 38 39 38 38 38 38 37 37 37 37 37 37 37
32 32 32 31 30 31 31 32 33 33 32 33 33 33 33 32 31 31 30 29 31 33 32 31 34 34 30 28 26 25 25 26 26 26 26 26 28 29 30 31 31 32 33 34 35 36 37 37 37 37 37 37 37 37 37 37 37 37 37 37 37 37 37 36 36 36 37 37 38 39 40 40 40 40 40 39 38 38 37 37 37 37 37 38 38 37
30 32 34 35 36 36 34 34 33 31 31 33 34 34 34 34 33 32 31 33 35 34 33 36 38 38 36 33 31 30 29 30 31 31 32 32 33 34 33 33 34 35 36 36 37 38 38 38 38 38 38 38 39 39 39 38 39 39 39 38 38 38 37 37 37 37 38 38 38 39 40 41 41 41 40 39 38 37 37 37 37 38 38 38 38 38
30 32 34 35 36 36 34 33 32 31 32 35 35 34 35 34 34 34 35 37 36 33 36 39 37 39 41 38 34 33 33 34 34 34 34 35 35 35 35 36 37 37 38 38 38 39 39 38 38 38 39 40 40 40 40 40 40 39 39 39 38 38 38 38 38 38 39 39 39 40 40 40 41 41 40 39 38 38 37 38 38 38 38 38 38 38
31 33 33 32 33 34 33 32 31 31 31 32 32 33 34 34 35 37 39 40 36 35 39 39 35 38 42 37 33 34 34 34 35 35 35 35 36 37 37 38 38 38 39 39 39 39 38 38 39 39 40 41 40 41 41 41 40 39 39 38 38 38 38 38 38 39 40 40 40 40 40 40 40 40 40 40 40 39 39 39 39 39 39 39 39 39
31 32 32 31 32 33 33 32 30 30 30 30 31 32 33 34 36 38 39 39 37 37 39 38 36 39 39 34 32 34 34 35 35 36 37 37 37 37 38 38 39 40 40 39 39 39 39 39 39 40 40 41 41 41 41 40 39 39 38 38 38 38 38 37 38 39 40 40 40 40 40 40 41 41 41 42 42 41 41 40 40 40 40 40 40 40
30 31 30 30 31 33 33 32 31 30 30 31 33 33 33 35 36 37 37 36 35 37 39 37 38 41 37 33 34 35 34 36 37 37 37 37 36 36 38 39 40 40 39 39 39 39 39 39 39 39 40 40 39 39 39 39 38 38 38 37 37 37 37 36 37 37 37 38 39 39 40 40 41 41 42 42 42 42 41 41 41 41 41 41 41 41
30 30 29 29 30 33 33 32 32 30 30 32 34 35 36 36 35 36 36 35 36 38 38 37 39 40 35 32 34 34 33 35 37 37 35 35 35 36 38 39 39 38 38 38 38 38 37 37 37 37 37 37 37 37 37 38 38 37 37 37 37 37 36 36 35 35 36 36 37 38 38 39 39 40 41 41 42 42 42 42 42 42 41 41 41 40
29 29 29 28 30 32 31 31 31 30 30 34 37 38 37 36 36 35 35 36 36 36 35 37 38 38 34 32 34 35 33 33 35 35 34 35 36 37 37 36 36 36 36 35 35 35 35 35 35 35 36 36 36 37 37 37 37 37 37 37 36 36 36 36 35 36 36 36 37 37 38 38 38 39 39 40 40 40 41 41 41 41 41 41 40 40
29 30 30 29 29 31 31 29 29 31 32 35 36 36 36 37 38 37 37 38 37 35 35 37 37 37 35 35 36 37 35 34 33 33 33 34 34 34 34 33 33 34 34 34 34 34 34 34 35 35 35 35 36 36 37 37 37 37 36 36 36 36 36 36 36 37 37 38 38 38 38 38 39 39 39 39 39 40 40 41 41 41 41 41 40 40
31 31 31 31 31 31 29 28 29 32 34 34 33 32 34 37 38 38 39 39 37 36 37 37 38 38 38 38 38 37 36 34 33 32 32 32 32 32 32 32 32 33 34 34 34 34 34 34 35 35 35 36 36 36 36 36 36 36 36 37 37 37 37 38 38 39 39 39 40 40 40 40 40 40 40 40 40 41 41 41 41 42 42 42 42 42
33 32 31 32 32 30 29 30 31 31 31 32 32 32 32 33 34 35 38 38 37 37 37 38 39 39 39 39 38 36 34 33 32 31 31 31 32 32 32 33 34 34 34 34 34 35 35 35 35 36 36 36 36 37 37 37 37 38 38 38 39 39 40 40 41 41 41 41 41 41 41 41 42 42 42 42 42 42 42 42 42 42 42 43 43 43
34 33 33 33 33 32 32 33 33 31 31 33 33 32 31 31 31 32 34 35 34 34 35 36 37 37 36 35 35 33 33 32 31 31 32 32 32 33 33 34 34 34 35 36 36 36 36 37 37 37 37 37 37 38 38 39 39 40 40 40 41 41 42 42 43 43 43 43 43 43 42 42 43 43 44 44 44 44 44 43 43 43 43 43 43 43
33 34 34 34 34 33 33 33 31 30 33 36 34 32 32 32 31 30 31 33 32 31 32 32 32 32 31 31 32 32 32 32 32 33 33 33 33 34 34 34 34 35 35 36 36 37 37 38 38 38 38 38 39 39 39 40 40 41 42 42 43 43 43 44 44 45 45 44 44 44 44 44 44 44 45 45 45 45 45 44 44 44 44 44 44 44
31 31 31 31 32 32 32 32 30 30 33 34 33 31 32 33 30 28 31 33 34 33 32 30 30 30 29 30 31 31 31 33 34 35 35 34 34 35 35 35 36 36 36 37 37 38 38 38 38 39 39 40 40 40 41 42 42 43 44 44 44 45 45 46 46 46 45 45 45 45 45 45 45 45 46 46 46 46 46 46 45 45 45 45 45 45
33 31 31 32 31 31 32 32 31 32 33 33 31 30 31 30 28 28 31 33 33 33 32 30 30 31 30 31 31 31 32 34 35 36 36 36 36 36 36 36 37 37 38 38 38 39 39 39 39 40 40 41 42 42 43 44 44 45 46 46 46 46 47 47 47 47 46 46 46 46 46 46 46 47 47 47 47 47 47 47 46 46 46 46 46 46
35 34 35 36 35 34 34 33 33 34 35 34 33 33 31 29 28 31 34 33 32 32 32 31 31 32 31 31 32 32 33 35 36 37 37 37 37 37 37 38 38 38 38 39 40 40 40 41 41 42 42 43 44 44 44 45 46 46 47 47 47 48 48 48 48 48 48 47 47 47 48 48 48 48 48 48 48 48 48 48 47 47 47 47 47 47
36 35 36 37 37 37 37 36 35 36 37 35 34 34 34 34 34 35 35 33 33 33 33 33 33 33 33 33 33 34 35 36 36 37 38 38 39 39 39 39 39 39 40 40 41 41 42 42 43 43 44 44 45 45 46 46 47 47 48 48 49 50 50 50 49 49 49 49 49 49 49 49 49 49 49 49 49 49 48 48 48 48 48 48 48 48
36 35 35 36 37 36 36 36 35 36 37 36 35 35 37 38 37 36 34 34 34 34 34 34 35 35 35 35 36 36 37 37 37 38 39 39 40 40 40 40 41 41 42 42 43 43 44 45 45 46 46 46 46 46 47 47 48 48 48 49 50 50 50 50 50 50 50 49 49 49 49 50 50 50 50 50 50 49 49 49 49 49 49 49 48 48
36 35 35 36 36 35 35 36 36 35 35 35 35 36 36 36 35 33 32 33 34 34 34 35 36 36 36 36 36 37 37 37 38 38 39 40 40 41 41 41 42 43 44 44 45 45 46 47 47 48 48 47 47 47 47 48 49 49 49 49 49 49 49 50 50 49 49 49 49 49 49 49 49 49 49 49 49 49 49 48 48 48 48 48 48 47
36 36 35 35 36 35 35 36 35 34 33 33 34 35 33 32 32 31 31 31 33 33 33 33 34 36 35 35 36 36 37 38 38 38 39 40 41 41 42 43 43 44 45 45 46 46 47 48 48 49 49 48 47 47 47 48 49 50 50 50 49 49 49 49 49 49 49 49 48 48 48 48 47 47 47 47 47 47 47 46 46 46 46 45 45 45
36 35 34 34 35 35 35 35 34 33 32 32 33 33 32 31 31 30 30 30 32 32 33 33 34 34 35 35 36 36 37 37 38 39 39 40 41 42 43 44 44 45 46 46 46 47 47 48 49 49 50 50 49 49 49 49 49 50 51 51 50 50 50 50 50 50 49 49 48 48 47 46 46 46 46 46 46 46 46 45 45 44 44 43 42 42
35 35 34 34 34 35 35 35 33 32 33 32 32 32 32 31 31 31 31 32 34 34 35 35 35 35 35 35 36 37 38 38 39 40 41 41 42 43 43 45 46 47 47 48 48 49 49 50 51 52 53 53 53 51 51 51 51 51 52 52 51 51 51 51 51 51 50 50 49 48 48 47 46 46 45 46 46 46 46 45 44 43 42 42 41 40
36 35 35 35 35 35 35 34 33 32 33 32 32 33 33 33 34 35 34 35 35 36 36 37 37 37 37 38 39 40 41 41 42 43 43 44 44 45 45 47 48 49 49 50 50 51 51 52 53 54 54 55 54 53 53 53 53 53 53 53 53 52 52 52 52 52 52 51 50 50 49 48 48 47 47 47 47 46 46 45 44 43 42 42 41 40
35 35 36 35 35 36 36 35 34 33 34 33 32 33 34 35 36 37 36 36 36 36 37 37 37 38 39 40 41 42 43 44 44 45 46 47 47 48 49 49 50 51 52 52 52 53 53 54 55 56 56 56 56 55 55 55 55 54 54 54 54 54 54 54 53 53 53 53 52 51 50 50 50 49 48 47 47 46 46 45 44 43 42 41 40 40
35 36 36 35 36 37 37 36 35 34 34 34 33 34 35 36 36 36 36 36 36 37 37 38 39 39 40 41 42 43 44 45 46 46 48 48 49 50 51 51 52 53 53 54 54 55 56 56 57 58 58 58 57 56 56 56 56 56 55 55 55 55 55 55 55 54 54 53 53 53 52 52 51 50 49 48 47 46 45 44 43 42 41 40 40 40
37 38 36 35 36 37 36 35 35 35 35 35 34 35 36 37 36 36 37 37 37 38 39 40 40 41 41 42 43 44 45 46 47 48 49 49 50 51 52 52 53 54 54 55 55 56 56 57 57 58 59 59 58 58 58 58 58 57 57 56 56 56 56 56 55 55 54 54 53 53 53 52 52 51 49 48 47 46 45 44 43 42 41 39 39 40
Wind_Direction
211 212 215 217 218 220 220 219 219 221 219 217 220 223 224 225 231 234 235 240 234 234 243 241 243 246 246 248 250 253 255 251 252 253 252 250 249 249 249 251 251 251 254 257 258 256 255 255 255 256 257 256 256 257 256 255 255 256 257 258 260 264 267 268 270 272 273 273 273 273 273 273 273 272 272 272 272 271 270 270 269 268 268 266 264 263
212 212 218 220 219 218 219 218 217 219 220 220 219 223 227 226 230 232 234 240 238 237 244 247 250 249 247 248 250 251 250 249 248 248 249 250 248 248 249 250 252 253 257 260 260 260 259 258 257 256 256 254 254 256 255 254 255 255 256 258 260 264 266 268 269 271 272 273 273 274 274 274 275 274 273 274 273 273 272 272 271 270 270 268 267 265
214 217 221 221 218 215 217 217 215 218 220 221 221 222 227 229 231 236 238 242 242 241 247 253 255 251 249 249 250 249 246 247 249 246 247 249 249 250 250 251 254 256 259 261 262 262 261 261 260 258 256 254 253 254 255 255 255 256 257 259 261 264 266 268 270 271 273 274 274 276 277 278 278 277 276 275 275 275 275 275 273 272 271 270 268 267
214 220 222 218 214 212 216 218 214 218 222 222 222 222 229 232 230 234 240 244 245 245 248 255 258 254 252 252 252 250 247 249 253 249 248 248 248 249 251 252 254 256 259 261 262 263 263 263 262 260 257 255 254 254 255 255 255 256 257 259 261 263 265 267 269 271 274 275 276 278 280 280 281 281 279 278 277 276 277 277 276 275 273 271 269 267
216 222 218 213 213 212 213 217 215 217 225 228 224 222 228 231 229 233 240 244 248 252 253 259 263 257 254 255 254 252 249 250 253 252 251 250 248 250 252 253 253 254 257 260 262 263 264 264 262 260 258 257 256 255 255 254 254 256 258 260 261 263 265 267 268 271 273 276 277 279 281 282 282 282 281 279 278 277 277 277 276 276 274 272 270 268
219 222 215 211 216 215 213 218 218 217 224 232 230 225 226 228 230 236 243 246 250 254 256 259 261 256 255 254 253 254 255 254 255 254 255 255 254 252 252 253 255 256 257 259 262 265 265 264 262 261 259 257 257 256 256 255 255 257 259 261 263 265 266 268 269 270 272 275 276 277 279 280 279 279 278 278 277 277 277 277 277 276 274 273 272 270
219 220 215 211 214 215 214 219 223 219 220 230 231 226 226 228 231 237 241 244 245 248 253 254 250 254 258 254 252 255 258 259 258 256 256 258 258 255 254 256 258 258 259 260 262 265 265 264 262 261 258 255 255 256 256 257 257 258 260 262 264 266 268 269 271 271 272 274 275 276 277 278 278 278 278 278 279 279 279 279 278 277 275 274 273 271
217 217 217 214 214 216 217 221 223 218 219 230 232 225 226 228 231 234 236 240 244 249 256 257 250 254 259 253 253 257 258 260 260 257 257 259 261 260 258 258 258 257 259 261 263 264 265 263 262 261 259 257 257 258 258 258 258 259 261 263 265 267 268 270 271 272 273 274 275 276 278 279 279 279 280 280 280 281 281 280 279 279 278 276 274 273
219 217 218 215 216 220 221 224 223 218 223 231 230 225 228 229 229 234 237 241 249 253 257 257 250 252 256 254 258 260 259 261 260 258 259 263 265 261 256 254 253 255 257 259 261 263 265 264 263 262 261 260 259 260 260 260 261 262 263 265 266 268 269 270 271 272 273 274 276 277 278 279 279 280 281 282 282 282 282 281 280 280 280 278 277 275
222 220 219 216 218 222 223 227 226 222 227 229 226 228 234 235 236 240 240 243 251 253 251 251 249 251 257 257 257 258 257 257 257 257 256 260 261 255 251 252 253 255 257 258 260 262 265 265 265 265 264 263 262 262 262 263 263 264 264 265 266 268 270 271 272 272 273 274 275 277 278 278 279 280 281 282 283 283 283 282 281 281 280 280 279 277
226 224 223 220 222 222 221 226 228 227 225 224 227 234 239 243 244 245 245 246 250 251 250 249 248 250 256 257 252 250 252 249 250 255 254 256 257 254 255 257 257 259 259 262 265 266 267 268 269 269 267 267 266 265 265 265 265 265 265 265 267 269 270 271 272 273 273 274 275 276 277 277 278 280 281 282 282 283 283 283 282 282 281 281 280 280
229 225 226 227 225 222 222 227 232 234 229 227 231 233 236 245 248 249 251 248 245 248 250 249 248 245 247 251 250 250 252 247 245 251 254 254 255 257 259 259 259 260 261 264 266 267 269 271 272 272 270 269 268 267 267 267 267 266 266 267 268 270 271 272 273 273 274 275 275 276 277 278 278 279 280 281 281 282 283 283 283 284 283 283 282 281
227 227 230 231 229 225 224 228 233 237 235 231 231 230 234 243 248 249 249 246 244 247 250 251 250 247 247 252 254 254 253 247 245 249 250 251 254 258 260 261 261 261 262 264 266 267 269 272 273 273 272 270 269 269 269 269 268 267 267 268 270 271 272 273 274 275 275 276 276 277 277 278 279 279 280 281 281 281 282 283 284 284 284 284 283 283
228 233 232 230 232 229 225 225 228 232 233 231 230 229 231 236 242 247 248 249 250 251 251 252 253 253 255 258 254 252 250 244 247 253 252 251 254 258 260 261 263 263 263 264 265 266 268 271 273 273 272 271 271 271 272 271 270 269 269 270 271 272 273 274 275 276 277 278 278 278 278 278 279 279 279 280 281 281 282 283 284 284 285 285 285 284
226 233 231 228 231 230 229 230 229 230 234 235 234 232 232 233 236 243 245 246 250 253 252 251 250 248 251 254 252 252 254 251 253 257 255 252 254 257 261 262 264 264 264 265 266 266 267 269 271 272 272 272 272 273 273 273 272 271 271 271 272 273 274 275 276 277 277 278 279 279 278 278 278 279 279 280 280 281 282 283 284 285 286 287 287 287
227 234 235 234 234 229 230 234 232 231 237 239 236 234 238 238 238 245 246 243 248 255 253 249 249 249 250 256 258 258 261 259 255 254 253 255 259 261 263 263 264 264 264 265 267 267 268 269 270 271 273 273 274 274 274 273 272 272 273 273 273 275 276 276 276 277 278 278 279 278 277 277 278 279 279 279 280 281 282 283 284 285 286 288 289 289
230 236 239 238 237 233 232 234 234 233 235 237 236 236 240 239 238 244 250 252 252 254 254 251 252 257 260 261 263 263 264 263 260 255 253 255 261 265 264 264 264 263 263 265 266 267 269 271 272 274 275 276 276 276 275 273 272 272 272 273 274 276 276 277 277 277 277 278 278 277 276 277 277 277 278 279 280 281 282 283 284 285 286 288 289 290
231 236 240 236 235 238 236 234 236 238 235 234 237 238 240 243 243 242 248 255 255 254 257 253 253 259 259 258 263 266 262 260 260 261 259 255 257 259 260 262 263 261 262 265 266 268 271 273 276 278 279 278 277 277 277 276 275 275 275 274 275 275 276 276 277 276 277 277 277 276 276 276 276 277 278 279 279 280 282 283 283 284 286 288 289 290
231 236 241 237 234 239 238 233 235 240 237 235 239 239 239 242 244 243 245 250 252 255 259 258 257 257 254 254 261 264 259 255 258 263 264 260 257 258 259 261 260 260 262 265 267 270 272 275 277 278 278 278 277 277 278 280 280 280 279 278 277 276 275 276 276 276 276 276 276 275 275 275 276 277 277 278 278 279 280 282 283 284 286 288 289 289
233 235 240 239 237 238 237 233 234 237 238 238 240 240 241 242 242 242 244 247 249 252 257 261 261 257 255 255 257 257 257 258 261 263 261 261 262 261 259 257 256 259 262 265 269 271 273 275 276 275 276 277 278 279 279 281 282 283 284 283 280 278 276 275 275 275 276 275 274 274 274 275 275 276 276 277 277 278 280 281 283 284 286 287 288 288
234 234 237 239 239 235 235 236 234 233 235 237 238 238 240 243 244 245 247 247 247 250 253 258 260 257 257 256 253 254 257 258 260 260 259 261 263 262 259 255 255 260 263 266 270 272 274 276 275 274 277 279 280 279 280 281 282 283 285 285 282 280 276 274 275 275 276 275 274 273 273 274 275 275 276 276 277 278 280 282 283 285 286 287 287 288
233 234 235 236 236 235 238 240 237 235 237 238 238 239 239 240 241 245 249 249 248 249 250 254 260 260 257 256 255 256 257 257 256 257 260 262 261 260 260 257 259 264 267 270 272 274 276 275 273 276 280 281 280 279 279 280 281 282 283 284 282 281 278 275 274 275 275 275 274 273 273 274 275 275 276 276 278 280 281 282 284 285 286 286 286 287
233 234 234 236 238 239 241 242 240 239 241 241 242 242 241 241 240 240 247 250 249 250 251 253 260 261 258 256 256 255 254 256 257 257 258 258 257 260 263 265 268 271 272 274 275 275 275 274 275 278 280 280 279 278 278 279 280 281 282 282 281 281 280 278 275 275 275 275 274 273 273 274 275 275 276 277 279 280 281 283 284 284 284 285 285 286
232 233 234 238 242 243 244 244 242 241 241 241 243 242 241 242 242 241 245 247 247 248 249 252 256 259 261 260 256 256 256 256 257 258 258 258 259 263 267 269 271 272 274 276 277 277 277 277 279 280 280 279 278 277 278 279 280 280 282 282 280 280 280 280 278 275 275 275 274 274 274 274 275 276 277 278 279 280 281 283 283 283 284 284 285 286
231 233 232 235 240 242 243 243 242 242 241 241 243 242 241 242 242 243 246 248 250 249 246 249 253 257 261 262 258 260 260 258 259 262 262 263 264 268 273 274 274 275 278 281 281 281 280 281 282 281 281 280 278 278 279 279 280 281 282 282 281 280 281 281 279 277 276 275 274 274 274 275 276 277 278 279 280 280 281 282 282 283 283 284 285 286
231 233 232 232 235 237 239 240 241 241 241 243 244 242 242 241 240 243 246 246 250 251 247 248 253 256 259 260 260 262 263 263 266 268 269 269 270 273 276 276 277 279 281 282 282 282 282 282 282 282 281 280 280 280 280 280 281 282 283 283 282 282 281 280 280 279 277 276 275 275 275 276 277 278 278 278 279 280 281 281 282 282 283 283 283 284
232 235 234 234 236 239 240 243 243 241 239 242 243 242 241 242 241 243 245 245 248 252 251 251 254 257 258 257 258 263 265 266 268 271 273 273 273 274 275 274 276 278 279 280 281 281 282 282 282 281 281 280 280 281 281 282 283 283 284 284 283 282 281 281 280 279 279 277 276 276 276 276 277 277 278 278 278 278 279 280 281 281 281 282 282 282
233 236 236 236 240 241 241 242 243 240 239 241 242 241 241 242 241 241 243 246 248 251 253 254 254 257 259 257 257 261 264 266 268 269 271 271 272 273 274 274 276 277 278 279 279 280 281 281 280 280 280 280 281 281 282 283 284 284 285 285 284 282 281 281 280 279 279 278 278 277 276 276 276 276 277 277 277 277 278 279 280 280 280 281 281 281
233 236 238 237 240 242 241 241 242 242 243 243 242 242 242 242 241 242 245 248 248 248 254 256 254 254 259 261 258 258 261 264 265 267 268 270 271 273 273 274 275 276 277 277 278 278 279 279 279 279 279 281 281 282 283 284 286 286 286 285 284 283 282 281 280 279 279 278 278 277 276 276 276 276 275 275 276 276 277 278 279 280 280 280 281 281
234 237 239 237 240 242 241 242 243 243 245 245 244 242 242 242 242 244 247 249 249 250 255 258 257 256 260 261 259 260 263 265 265 266 267 269 271 272 273 274 274 275 275 276 276 277 278 278 279 279 280 281 281 282 284 285 286 287 286 285 285 285 285 283 282 280 279 278 278 277 277 276 276 276 276 276 276 277 277 278 279 279 280 280 281 281
236 238 239 238 241 242 241 241 242 242 244 246 246 244 244 244 245 247 249 250 251 253 256 259 260 260 260 260 261 263 263 264 266 266 267 269 271 271 272 272 273 274 275 275 276 277 278 279 279 280 281 281 281 282 283 285 286 286 285 285 285 286 286 285 284 282 281 279 279 278 278 278 277 277 277 277 277 277 277 278 279 279 280 280 281 280
236 238 239 239 241 243 241 240 241 243 245 246 246 245 245 246 247 248 249 250 250 253 256 257 258 260 261 261 263 264 261 262 265 267 269 271 271 270 270 271 272 274 276 277 278 279 279 279 279 280 281 282 282 283 284 285 285 285 285 285 285 286 286 285 284 283 282 282 281 280 280 279 279 279 278 278 278 277 278 279 279 279 280 280 280 280
233 235 239 238 241 245 243 241 243 245 246 247 246 246 246 247 248 250 251 251 250 251 254 256 257 261 263 262 262 264 262 263 267 269 270 271 269 269 270 272 274 275 276 277 278 279 279 279 280 281 282 283 284 284 285 285 285 285 285 286 286 286 285 285 284 284 283 284 283 282 281 280 280 279 279 279 279 279 279 279 279 279 279 279 279 279
233 234 238 239 242 245 245 244 245 244 245 248 249 247 247 248 249 250 251 251 251 252 254 258 260 262 263 261 262 264 265 266 268 269 270 270 270 271 272 273 275 276 276 277 278 279 279 279 280 281 282 283 284 284 285 285 285 285 286 286 287 287 286 285 284 284 284 284 284 283 282 281 280 280 279 279 279 279 279 279 279 279 279 279 278 278
234 235 239 240 242 244 244 242 243 243 245 250 251 248 247 249 250 251 253 254 253 253 255 258 260 261 261 262 263 265 266 268 267 267 269 271 271 272 273 274 275 276 277 278 279 279 279 280 280 281 282 283 284 284 285 285 285 286 286 287 287 287 286 286 285 285 285 284 284 283 282 281 281 280 280 280 280 279 279 278 278 278 278 278 278 278
234 237 240 240 241 243 242 239 242 247 251 252 252 250 250 252 252 253 256 257 256 255 256 257 259 261 262 263 265 266 267 266 264 263 266 269 271 272 274 274 275 276 277 277 278 279 279 280 281 281 282 283 284 285 285 285 286 286 287 287 287 287 287 286 286 286 285 284 284 284 283 282 281 281 280 280 280 279 279 278 278 278 278 278 278 278
237 238 240 240 241 242 242 242 246 252 254 252 251 251 251 251 251 252 255 258 258 258 257 258 259 262 263 264 266 268 267 266 264 263 266 270 272 272 273 274 274 275 276 277 278 279 280 281 281 282 283 284 285 285 285 285 286 286 286 287 287 287 287 286 286 286 285 285 284 283 283 282 281 280 280 279 279 279 279 279 279 278 278 278 278 278
239 240 240 240 241 242 243 246 248 249 250 250 250 251 251 250 249 250 253 257 259 260 260 258 259 262 264 266 268 268 267 266 266 267 270 274 275 275 275 275 276 276 277 278 279 280 281 282 282 283 284 284 285 285 285 285 286 286 286 287 287 287 287 286 286 286 286 285 284 284 283 282 281 280 280 279 279 279 279 279 279 279 278 278 278 278
237 240 240 240 241 240 240 244 245 246 250 252 252 253 253 251 249 250 254 256 257 259 261 259 259 261 263 265 267 267 266 265 265 268 272 274 275 275 275 276 277 277 278 278 279 279 280 281 282 283 284 284 284 285 285 285 285 285 286 286 286 286 286 285 286 285 285 285 284 284 283 282 282 281 280 280 279 279 279 279 279 279 279 278 278 278
236 237 238 238 239 239 240 243 246 247 251 251 250 253 254 252 250 250 254 257 257 258 259 258 258 260 261 263 265 265 264 263 264 268 271 273 274 274 274 274 275 276 277 278 279 279 279 280 281 282 283 283 284 285 285 285 285 285 286 285 285 285 285 285 285 285 285 284 284 284 283 283 282 281 281 280 280 280 279 279 279 279 278 278 278 278
237 238 238 239 240 241 242 245 248 250 250 250 250 251 252 252 251 250 253 257 257 256 258 258 258 260 262 263 265 264 264 264 265 268 270 271 272 273 273 274 274 275 276 277 278 279 279 280 280 281 282 283 284 284 285 285 285 285 285 285 285 285 285 285 286 285 284 284 283 283 283 282 282 281 281 281 280 280 279 279 279 278 278 278 278 278
237 239 240 240 242 244 245 248 251 252 252 250 251 252 251 251 253 254 256 259 256 255 258 260 260 261 263 263 264 264 265 267 267 269 270 270 271 272 273 274 274 275 276 277 278 279 279 279 280 281 282 284 284 285 285 286 285 285 285 285 285 286 286 286 286 285 285 284 283 283 283 282 282 282 281 281 280 280 279 279 278 278 277 277 277 277
238 239 241 241 243 245 247 248 250 253 254 252 252 254 254 254 255 256 257 258 257 257 259 260 261 262 263 264 264 265 266 267 268 268 269 270 270 271 273 274 275 276 276 277 278 280 280 280 281 282 284 285 286 286 286 286 286 287 287 287 287 287 287 286 286 286 285 284 284 283 283 282 282 282 281 281 280 280 279 278 277 277 277 277 277 277
240 240 242 243 244 245 245 248 251 255 256 254 253 254 254 255 256 255 256 257 258 258 258 259 260 261 261 263 265 266 267 268 269 270 271 271 272 273 274 275 276 277 278 278 279 280 281 281 282 283 285 286 287 287 287 287 287 287 287 288 289 289 288 287 286 286 285 285 284 284 283 283 282 282 281 280 280 279 278 277 277 276 276 276 276 276
243 243 244 246 247 247 248 251 254 256 256 255 254 253 253 254 255 256 256 257 258 257 257 259 261 262 262 264 267 268 270 271 272 273 273 274 275 275 276 277 277 278 279 280 281 282 282 282 283 283 284 285 287 287 287 287 287 286 286 287 288 288 288 287 286 286 285 285 284 284 283 283 282 281 281 280 279 278 277 277 277 276 276 276 276 276
246 245 246 248 249 250 252 253 253 254 255 256 255 253 252 253 255 257 257 257 258 259 260 263 264 265 265 267 268 270 271 272 273 274 274 275 276 277 278 279 280 281 282 282 283 283 283 283 283 284 284 285 286 286 287 287 287 286 286 287 287 287 287 286 285 284 284 284 284 284 283 282 282 281 281 280 279 278 277 277 276 276 276 276 275 276
247 245 246 248 248 249 251 252 251 251 253 254 253 252 251 252 255 257 258 259 261 262 263 265 266 266 266 267 267 269 270 271 272 273 274 275 276 277 278 279 280 281 282 282 283 283 283 283 284 284 284 285 285 286 286 286 286 286 286 286 286 286 285 284 283 283 282 282 282 282 282 282 282 281 280 280 279 279 278 277 276 275 275 274 274 275
246 244 245 247 247 248 251 252 251 251 254 254 252 251 251 253 257 261 263 263 264 264 264 265 266 266 267 267 268 269 271 272 273 274 275 275 276 277 278 278 279 280 281 281 281 282 282 283 283 284 284 284 285 285 285 285 285 285 285 285 285 285 284 283 282 281 281 281 281 281 281 281 281 281 280 280 279 278 277 276 275 274 274 274 274 275
245 244 245 247 248 250 252 252 253 255 257 256 253 252 254 257 260 263 265 265 265 265 265 266 266 267 268 269 270 271 272 272 273 274 275 276 276 277 278 279 280 280 280 281 281 282 282 282 282 283 283 283 283 284 284 284 284 284 284 284 284 283 283 282 281 280 280 280 280 280 280 281 281 281 280 279 278 277 277 276 274 273 274 275 275 276
244 246 247 248 249 250 251 251 251 253 255 254 253 254 258 260 261 262 264 265 265 265 266 267 268 269 270 271 272 273 273 274 274 275 276 276 277 278 279 279 280 280 281 281 282 282 282 282 282 282 283 283 283 283 282 282 283 283 284 283 283 282 281 281 281 280 280 279 279 279 280 280 280 280 279 278 277 276 275 275 274 273 273 275 275 276
245 247 248 248 249 251 251 250 250 251 253 253 253 256 260 261 261 262 263 264 264 265 267 268 269 270 271 273 274 275 275 276 276 277 277 278 278 279 280 280 281 281 282 282 282 282 282 282 283 283 283 283 283 283 282 282 282 283 283 283 282 282 281 280 280 280 279 279 279 279 279 279 279 279 278 277 276 274 274 274 274 274 273 273 274 275